| time (UTC) | temp F | wind direction | speed MPH | gust MPH | rain 1hr in | rain 24hr in | rain mn in | humidity % | barometer mb |
| 20260507194542 | 57 | 0 | 0.0 | 1.0 | 0.00 | 0.00 | 0.00 | 100 | 1010.6 |
| 20260507193040 | 58 | 0 | 0.0 | 1.0 | 0.00 | 0.00 | 0.00 | 100 | 1010.8 |
| 20260507191544 | 58 | 0 | 0.0 | 2.0 | 0.00 | 0.00 | 0.00 | 100 | 1010.5 |
| 20260507190046 | 58 | 171 | 0.0 | 1.0 | 0.00 | 0.00 | 0.00 | 100 | 1010.6 |
| 20260507184545 | 58 | 140 | 1.0 | 4.0 | 0.00 | 0.00 | 0.00 | 100 | 1010.9 |
| 20260507183044 | 57 | 67 | 0.0 | 5.0 | 0.00 | 0.00 | 0.00 | 100 | 1010.7 |
| 20260507181539 | 57 | 32 | 1.0 | 4.0 | 0.00 | 0.00 | 0.00 | 100 | 1010.8 |
| 20260507180045 | 57 | 270 | 0.0 | 4.0 | 0.00 | 0.00 | 0.00 | 100 | 1011.3 |
| 20260507174550 | 57 | 74 | 2.0 | 5.0 | 0.00 | 0.00 | 0.00 | 100 | 1011.5 |
| 20260507173049 | 57 | 349 | 2.0 | 7.0 | 0.00 | 0.00 | 0.00 | 100 | 1011.9 |
| 20260507171605 | 57 | 339 | 1.0 | 5.0 | 0.00 | 0.00 | 0.00 | 100 | 1011.6 |
| 20260507170044 | 57 | 33 | 2.0 | 5.0 | 0.00 | 0.00 | 0.00 | 100 | 1011.8 |
| 20260507164600 | 57 | 13 | 1.0 | 7.0 | 0.00 | 0.02 | 0.00 | 100 | 1011.9 |
| 20260507163046 | 57 | 326 | 2.0 | 8.0 | 0.00 | 0.02 | 0.00 | 100 | 1012.0 |
| 20260507161547 | 57 | 340 | 2.0 | 8.0 | 0.00 | 0.02 | 0.00 | 100 | 1012.1 |
| 20260507160042 | 57 | 26 | 3.0 | 11.0 | 0.00 | 0.02 | 0.00 | 100 | 1012.1 |
| 20260507154539 | 57 | 348 | 2.0 | 9.0 | 0.00 | 0.03 | 0.00 | 100 | 1012.3 |
| 20260507153048 | 57 | 28 | 2.0 | 7.0 | 0.00 | 0.03 | 0.00 | 100 | 1012.3 |
| 20260507151544 | 57 | 11 | 3.0 | 9.0 | 0.00 | 0.03 | 0.00 | 100 | 1012.7 |
| 20260507150043 | 57 | 76 | 4.0 | 10.0 | 0.00 | 0.03 | 0.00 | 100 | 1012.8 |
| 20260507144540 | 57 | 27 | 5.0 | 13.0 | 0.00 | 0.03 | 0.00 | 100 | 1012.8 |
| 20260507143049 | 57 | 323 | 3.0 | 10.0 | 0.00 | 0.03 | 0.00 | 100 | 1012.8 |
| 20260507141552 | 57 | 105 | 3.0 | 10.0 | 0.00 | 0.03 | 0.00 | 100 | 1012.8 |
| 20260507140043 | 57 | 15 | 4.0 | 12.0 | 0.00 | 0.03 | 0.00 | 100 | 1012.5 |
| 20260507134548 | 57 | 75 | 2.0 | 11.0 | 0.00 | 0.03 | 0.00 | 100 | 1012.6 |
| 20260507133039 | 56 | 65 | 4.0 | 10.0 | 0.00 | 0.03 | 0.00 | 100 | 1012.5 |
| 20260507131540 | 56 | 342 | 3.0 | 12.0 | 0.00 | 0.03 | 0.00 | 100 | 1012.7 |
| 20260507130041 | 56 | 348 | 2.0 | 12.0 | 0.00 | 0.03 | 0.00 | 100 | 1012.3 |
| 20260507124544 | 56 | 28 | 4.0 | 12.0 | 0.00 | 0.03 | 0.00 | 100 | 1012.6 |
| 20260507123039 | 56 | 298 | 5.0 | 12.0 | 0.00 | 0.03 | 0.00 | 100 | 1012.6 |
| 20260507121540 | 56 | 13 | 3.0 | 16.0 | 0.00 | 0.03 | 0.00 | 100 | 1012.5 |
| 20260507120046 | 57 | 31 | 6.0 | 15.0 | 0.00 | 0.03 | 0.00 | 100 | 1012.5 |
| 20260507114543 | 58 | 304 | 3.0 | 13.0 | 0.00 | 0.03 | 0.00 | 100 | 1012.5 |
| 20260507113040 | 58 | 335 | 3.0 | 13.0 | 0.00 | 0.03 | 0.00 | 100 | 1012.3 |
| 20260507111544 | 58 | 315 | 4.0 | 16.0 | 0.00 | 0.03 | 0.00 | 100 | 1012.2 |
| 20260507110100 | 58 | 24 | 6.0 | 12.0 | 0.00 | 0.03 | 0.00 | 100 | 1011.6 |
| 20260507104547 | 58 | 48 | 5.0 | 16.0 | 0.00 | 0.03 | 0.00 | 100 | 1011.4 |
| 20260507103045 | 59 | 348 | 6.0 | 13.0 | 0.00 | 0.03 | 0.00 | 100 | 1011.7 |
| 20260507101546 | 58 | 316 | 6.0 | 15.0 | 0.00 | 0.03 | 0.00 | 100 | 1011.6 |
| 20260507100040 | 59 | 300 | 4.0 | 16.0 | 0.00 | 0.03 | 0.00 | 100 | 1011.2 |
| 20260507094540 | 59 | 264 | 9.0 | 18.0 | 0.00 | 0.03 | 0.00 | 100 | 1011.4 |
| 20260507093053 | 59 | 315 | 6.0 | 15.0 | 0.00 | 0.03 | 0.00 | 100 | 1011.3 |
| 20260507091602 | 59 | 40 | 4.0 | 14.0 | 0.00 | 0.03 | 0.00 | 100 | 1010.8 |
| 20260507090046 | 59 | 291 | 5.0 | 13.0 | 0.00 | 0.03 | 0.00 | 100 | 1010.6 |
| 20260507084542 | 59 | 310 | 7.0 | 18.0 | 0.00 | 0.03 | 0.00 | 100 | 1010.6 |
| 20260507083040 | 60 | 338 | 7.0 | 21.0 | 0.00 | 0.03 | 0.00 | 100 | 1010.7 |
| 20260507081545 | 61 | 48 | 7.0 | 17.0 | 0.00 | 0.03 | 0.00 | 100 | 1010.8 |
| 20260507080043 | 61 | 19 | 6.0 | 15.0 | 0.00 | 0.03 | 0.00 | 100 | 1010.7 |
| 20260507074545 | 62 | 355 | 6.0 | 13.0 | 0.00 | 0.03 | 0.00 | 100 | 1010.2 |
| 20260507073041 | 66 | 28 | 3.0 | 9.0 | 0.00 | 0.03 | 0.00 | 100 | 1009.6 |
| 20260507071538 | 66 | 26 | 2.0 | 5.0 | 0.00 | 0.03 | 0.00 | 100 | 1009.1 |
| 20260507070053 | 67 | 331 | 3.0 | 5.0 | 0.00 | 0.03 | 0.00 | 100 | 1008.7 |
| 20260507064546 | 68 | 49 | 0.0 | 1.0 | 0.00 | 0.03 | 0.00 | 100 | 1008.9 |
| 20260507063039 | 69 | 0 | 0.0 | 1.0 | 0.00 | 0.03 | 0.00 | 100 | 1008.9 |
| 20260507061540 | 69 | 50 | 0.0 | 6.0 | 0.00 | 0.03 | 0.00 | 100 | 1008.8 |
| 20260507054538 | 69 | 227 | 2.0 | 5.0 | 0.00 | 0.03 | 0.00 | 100 | 1009.4 |
| 20260507053051 | 70 | 207 | 2.0 | 8.0 | 0.00 | 0.03 | 0.00 | 100 | 1009.5 |
| 20260507051542 | 70 | 243 | 2.0 | 5.0 | 0.00 | 0.03 | 0.00 | 100 | 1009.6 |
| 20260507050042 | 70 | 222 | 1.0 | 8.0 | 0.00 | 0.03 | 0.00 | 100 | 1009.7 |
| 20260507044539 | 70 | 246 | 3.0 | 9.0 | 0.00 | 0.03 | 0.00 | 100 | 1009.8 |
| 20260507043038 | 70 | 219 | 2.0 | 7.0 | 0.00 | 0.03 | 0.00 | 100 | 1009.9 |
| 20260507041539 | 69 | 226 | 3.0 | 7.0 | 0.00 | 0.03 | 0.00 | 100 | 1009.9 |
| 20260507040043 | 69 | 271 | 1.0 | 8.0 | 0.00 | 0.03 | 0.00 | 100 | 1009.7 |
| 20260507034552 | 69 | 145 | 1.0 | 5.0 | 0.00 | 0.03 | 0.03 | 100 | 1009.6 |
| 20260507033043 | 69 | 240 | 1.0 | 7.0 | 0.00 | 0.03 | 0.03 | 100 | 1009.6 |
| 20260507031538 | 69 | 219 | 2.0 | 6.0 | 0.00 | 0.03 | 0.03 | 100 | 1009.5 |
| 20260507030040 | 68 | 217 | 1.0 | 4.0 | 0.00 | 0.03 | 0.03 | 100 | 1009.5 |
| 20260507024554 | 68 | 222 | 0.0 | 4.0 | 0.00 | 0.03 | 0.03 | 100 | 1009.6 |
| 20260507023040 | 68 | 229 | 1.0 | 3.0 | 0.00 | 0.03 | 0.03 | 100 | 1009.9 |
| 20260507021546 | 68 | 0 | 1.0 | 3.0 | 0.00 | 0.03 | 0.03 | 100 | 1010.0 |
| 20260507020039 | 68 | 229 | 1.0 | 4.0 | 0.00 | 0.03 | 0.03 | 100 | 1010.0 |
| 20260507014545 | 68 | 159 | 1.0 | 3.0 | 0.00 | 0.03 | 0.03 | 100 | 1009.9 |
| 20260507013038 | 68 | 213 | 0.0 | 2.0 | 0.00 | 0.03 | 0.03 | 100 | 1010.1 |
| 20260507011544 | 68 | 221 | 0.0 | 2.0 | 0.00 | 0.03 | 0.03 | 100 | 1010.3 |
| 20260507010049 | 68 | 222 | 1.0 | 2.0 | 0.00 | 0.03 | 0.03 | 100 | 1010.2 |
| 20260507004538 | 69 | 231 | 0.0 | 2.0 | 0.00 | 0.03 | 0.03 | 100 | 1010.2 |
| 20260507003040 | 69 | 213 | 1.0 | 2.0 | 0.00 | 0.03 | 0.03 | 100 | 1010.0 |
| 20260507001546 | 70 | 190 | 1.0 | 1.0 | 0.00 | 0.03 | 0.03 | 100 | 1010.1 |
| 20260507000043 | 70 | 226 | 1.0 | 3.0 | 0.00 | 0.03 | 0.03 | 100 | 1009.9 |
| 20260506234542 | 71 | 229 | 1.0 | 3.0 | 0.00 | 0.03 | 0.03 | 100 | 1010.0 |
| 20260506233041 | 72 | 149 | 1.0 | 3.0 | 0.00 | 0.03 | 0.03 | 100 | 1010.0 |
| 20260506231539 | 72 | 173 | 1.0 | 4.0 | 0.00 | 0.03 | 0.03 | 100 | 1009.9 |
| 20260506230044 | 72 | 205 | 1.0 | 5.0 | 0.00 | 0.03 | 0.03 | 100 | 1010.0 |
| 20260506224544 | 73 | 213 | 2.0 | 9.0 | 0.00 | 0.03 | 0.03 | 100 | 1009.7 |
| 20260506223043 | 73 | 260 | 3.0 | 11.0 | 0.00 | 0.03 | 0.03 | 100 | 1009.9 |
| 20260506221547 | 73 | 211 | 4.0 | 13.0 | 0.00 | 0.03 | 0.03 | 100 | 1010.0 |
| 20260506220050 | 73 | 232 | 2.0 | 4.0 | 0.00 | 0.03 | 0.03 | 100 | 1010.1 |
| 20260506214539 | 73 | 221 | 2.0 | 5.0 | 0.00 | 0.03 | 0.03 | 100 | 1010.0 |
| 20260506213043 | 72 | 188 | 0.0 | 3.0 | 0.00 | 0.03 | 0.03 | 100 | 1009.8 |
| 20260506211551 | 72 | 222 | 0.0 | 2.0 | 0.00 | 0.03 | 0.03 | 100 | 1009.9 |
| 20260506210043 | 71 | 244 | 0.0 | 2.0 | 0.00 | 0.03 | 0.03 | 100 | 1009.8 |
| 20260506204541 | 72 | 248 | 0.0 | 1.0 | 0.00 | 0.03 | 0.03 | 100 | 1009.7 |
| 20260506203041 | 72 | 255 | 0.0 | 3.0 | 0.00 | 0.03 | 0.03 | 100 | 1009.5 |
| 20260506201540 | 71 | 256 | 1.0 | 5.0 | 0.00 | 0.03 | 0.03 | 100 | 1009.8 |
| 20260506200038 | 70 | 211 | 2.0 | 7.0 | 0.00 | 0.03 | 0.03 | 100 | 1009.8 |